183P/Korlevic-Juric (1998)

Japanese version
Home page
Total 6,336 html files since Dec. 4, 1995
Updated on December 31, 2006

---------------------------------------------------------------------

* Profile

Designation 183P/1999 DN3
Discovery Date February 18, 1999
Magnitude 18.7 mag
Discoverer K. Korlevic, M. Juric (Visnjan)

* Orbital Elements

                    Epoch = 1998 Sept.24.0 TT
     T = 1998 Sept.30.4678 TT         Peri. = 161.2491
     e = 0.135043                     Node  =   5.9549  2000.0
     q = 3.907590 AU                  Incl. =  18.7192
       a =  4.517671 AU    n = 0.1026437    P =   9.602 years

* Finding Charts

* Magnitudes Graph

        m1 = 4.0 + 5 log d + 20 log r

---------------------------------------------------------------------

The orbital elements are calculated by Dr. Brian G. Marsden and printed on IAUC 8786.
The charts are made with StellaNavigator Ver.2.0 for Windows (AstroArts / ASCII).
The magnitudes graphs are made with Comet for Windows.

---------------------------------------------------------------------

Copyright(C) 1995-2008 Seiichi Yoshida (comet@aerith.net). All rights reserved.